Satellite: PHARMSAT
Catalog number: 35002
Epoch time:      09302.77045651
Element set:     126
Inclination:      040.4679 deg
RA of node:       154.6024 deg
Eccentricity:    0.0025643
Arg of perigee:   084.9575 deg
Mean anomaly:     275.4165 deg
Mean motion:   15.40169408 rev/day
Decay rate:      3.889e-05 rev/day^2
Epoch rev:            2509
Checksum:              298

Satellite: HAWKSAT1
Catalog number: 35003
Epoch time:      09302.70584545
Element set:     133
Inclination:      040.4601 deg
RA of node:       153.9756 deg
Eccentricity:    0.0025274
Arg of perigee:   088.7292 deg
Mean anomaly:     271.6361 deg
Mean motion:   15.41116316 rev/day
Decay rate:      7.153e-05 rev/day^2
Epoch rev:            2510
Checksum:              265

Satellite: CP6
Catalog number: 35004
Epoch time:      09301.01761656
Element set:    0128
Inclination:      040.4592 deg
RA of node:       164.0654 deg
Eccentricity:    0.0025269
Arg of perigee:   073.8562 deg
Mean anomaly:     286.5030 deg
Mean motion:   15.41216964 rev/day
Decay rate:      9.239e-05 rev/day^2
Epoch rev:           02483
Checksum:              290

Satellite: AEROCUB3
Catalog number: 35005
Epoch time:      09301.94524888
Element set:    0131
Inclination:      040.4745 deg
RA of node:       158.9660 deg
Eccentricity:    0.0024501
Arg of perigee:   080.0053 deg
Mean anomaly:     280.3498 deg
Mean motion:   15.40996674 rev/day
Decay rate:      8.367e-05 rev/day^2
Epoch rev:           02497
Checksum:              308

Satellite: DRAGNSAT
Catalog number: 35690
Epoch time:      09302.52466149
Element set:      88
Inclination:      051.6418 deg
RA of node:       331.1149 deg
Eccentricity:    0.0006132
Arg of perigee:   057.9384 deg
Mean anomaly:     302.2219 deg
Mean motion:   15.85404673 rev/day
Decay rate:     4.7279e-04 rev/day^2
Epoch rev:            1441
Checksum:              293

Satellite: POLLUX
Catalog number: 35693
Epoch time:      09302.56192016
Element set:      91
Inclination:      051.6411 deg
RA of node:       331.3748 deg
Eccentricity:    0.0005113
Arg of perigee:   023.9182 deg
Mean anomaly:     336.1939 deg
Mean motion:   15.84474357 rev/day
Decay rate:     4.2693e-04 rev/day^2
Epoch rev:            1438
Checksum:              291

Satellite: CASTOR
Catalog number: 35694
Epoch time:      09301.92262822
Element set:    0086
Inclination:      051.6431 deg
RA of node:       335.3803 deg
Eccentricity:    0.0004745
Arg of perigee:   021.4335 deg
Mean anomaly:     338.6862 deg
Mean motion:   15.82239583 rev/day
Decay rate:     2.1513e-04 rev/day^2
Epoch rev:           01427
Checksum:              285

Satellite: METEOR-M
Catalog number: 35865
Epoch time:      09301.82245358
Element set:      40
Inclination:      098.7936 deg
RA of node:       351.8743 deg
Eccentricity:    0.0001958
Arg of perigee:   334.6312 deg
Mean anomaly:     025.4730 deg
Mean motion:   14.21827271 rev/day
Decay rate:       1.76e-06 rev/day^2
Epoch rev:             584
Checksum:              296

Satellite: STERKH-2
Catalog number: 35866
Epoch time:      09301.80888730
Element set:      42
Inclination:      098.7947 deg
RA of node:       351.8992 deg
Eccentricity:    0.0002698
Arg of perigee:   326.0971 deg
Mean anomaly:     034.0033 deg
Mean motion:   14.22298067 rev/day
Decay rate:       1.78e-06 rev/day^2
Epoch rev:             584
Checksum:              322

Satellite: FREGAT-I
Catalog number: 35867
Epoch time:      09302.58823812
Element set:      52
Inclination:      097.3674 deg
RA of node:       351.8742 deg
Eccentricity:    0.0011213
Arg of perigee:   135.7595 deg
Mean anomaly:     224.4467 deg
Mean motion:   15.22744716 rev/day
Decay rate:      2.267e-05 rev/day^2
Epoch rev:             637
Checksum:              306

/EX





More information about the Keps mailing list